This is the latest recevied weather packets stored in our database for station/object KN6DHD. If no packets are shown the sender has not sent any weather packets the latest 10 day(s).
| Time | Temp. | Humidity | Pressure | Rain* | Wind** | Luminosity | Snow |
|---|---|---|---|---|---|---|---|
| 1777855400 | 20° C | 60% | 1012 hPa | 0 mm | - | 232 W/m² | - |
| 1777855096 | 19.44° C | 61% | 1012 hPa | 0 mm | - | 111 W/m² | - |
| 1777854793 | 19.44° C | 62% | 1012.1 hPa | 0 mm | - | 76 W/m² | - |
| 1777854490 | 18.89° C | 62% | 1012.3 hPa | 0 mm | - | 82 W/m² | - |
| 1777854187 | 19.44° C | 61% | 1012.2 hPa | 0 mm | - | 104 W/m² | - |
| 1777853884 | 19.44° C | 61% | 1012.1 hPa | 0 mm | - | 129 W/m² | - |
| 1777853581 | 19.44° C | 60% | 1012 hPa | 0 mm | - | 140 W/m² | - |
| 1777853278 | 20° C | 60% | 1012.2 hPa | 0 mm | - | 150 W/m² | - |
| 1777852975 | 20° C | 59% | 1012.2 hPa | 0 mm | - | 161 W/m² | - |
| 1777852673 | 20° C | 60% | 1012.2 hPa | 0 mm | - | 163 W/m² | - |
| 1777852370 | 20.56° C | 58% | 1012.3 hPa | 0 mm | - | 225 W/m² | - |
| 1777852068 | 20° C | 60% | 1011.9 hPa | 0 mm | - | 258 W/m² | - |
| 1777851765 | 20° C | 59% | 1012.3 hPa | 0 mm | - | 183 W/m² | - |
| 1777851462 | 20.56° C | 58% | 1012.1 hPa | 0 mm | - | 261 W/m² | - |
| 1777851157 | 20.56° C | 58% | 1012.3 hPa | 0 mm | - | 244 W/m² | - |
| 1777850849 | 20.56° C | 57% | 1012.3 hPa | 0 mm | - | 259 W/m² | - |
| 1777850546 | 20.56° C | 58% | 1012.1 hPa | 0 mm | - | 202 W/m² | - |
| 1777850245 | 20.56° C | 57% | 1012.1 hPa | 0 mm | - | 289 W/m² | - |
| 1777849941 | 20.56° C | 59% | 1012.1 hPa | 0 mm | - | 233 W/m² | - |
| 1777849637 | 20.56° C | 57% | 1012 hPa | 0 mm | - | 208 W/m² | - |
| 1777849335 | 20.56° C | 58% | 1012.1 hPa | 0 mm | - | 255 W/m² | - |
| 1777849032 | 20.56° C | 59% | 1011.9 hPa | 0 mm | - | 201 W/m² | - |
| 1777848732 | 21.11° C | 57% | 1011.9 hPa | 0 mm | - | 232 W/m² | - |
| 1777848429 | 21.11° C | 57% | 1011.8 hPa | 0 mm | - | 264 W/m² | - |
| 1777848127 | 21.11° C | 57% | 1012 hPa | 0 mm | - | 264 W/m² | - |
* Rain latest hour (hover to see other rain measurements)
** Current wind speed in m/s (hover to see current wind gust speed)